• Em Portugal
  • Lista de países
  • Para 7 dias
  • Temperatura da água
  • Mapas de satélite
  • Mapa do tempo
  • Widgets de tempo
  • user-avatar
    Iniciar Sessão

    Previsão horária em Niewodna

    Hoje, 23 Abril, Segunda-feira

    Tempo Temperatura Precipitação Vento Pressão Humidade
    00:00 +9°C° 0 mm 0 m/s 731 mmHg 67%
    01:00 +8°C° 0 mm 0 m/s 730 mmHg 67%
    02:00 +8°C° 0 mm 0 m/s 730 mmHg 67%
    03:00 +8°C° 0 mm 0 m/s 730 mmHg 68%
    04:00 +7°C° 0 mm 0 m/s 730 mmHg 69%
    05:00 +9°C° 0 mm 0 m/s 730 mmHg 65%
    06:00 +11°C° 0 mm 0 m/s 731 mmHg 61%
    07:00 +13°C° 0 mm 0 m/s 731 mmHg 56%
    08:00 +16°C° 0 mm 1 m/s 731 mmHg 51%
    09:00 +19°C° 0 mm 1 m/s 731 mmHg 47%
    10:00 +21°C° 0 mm 1 m/s 731 mmHg 42%
    11:00 +22°C° 0 mm 1 m/s 731 mmHg 40%
    12:00 +23°C° 0 mm 1 m/s 730 mmHg 39%
    13:00 +23°C° 0 mm 1 m/s 730 mmHg 39%
    14:00 +23°C° 0,1 mm 1 m/s 730 mmHg 41%
    15:00 +23°C° 0,1 mm 1 m/s 729 mmHg 43%
    16:00 +23°C° 0,1 mm 1 m/s 729 mmHg 45%
    17:00 +21°C° 0,5 mm 1 m/s 729 mmHg 53%
    18:00 +19°C° 0,5 mm 1 m/s 729 mmHg 61%
    19:00 +16°C° 0,5 mm 1 m/s 728 mmHg 69%
    20:00 +16°C° 0,9 mm 1 m/s 728 mmHg 74%
    21:00 +15°C° 0,9 mm 2 m/s 728 mmHg 79%
    22:00 +15°C° 0,9 mm 2 m/s 728 mmHg 84%
    23:00 +15°C° 0,4 mm 2 m/s 729 mmHg 87%

    Amanhã, 24 Abril, Terça-feira

    Tempo Temperatura Precipitação Vento Pressão Humidade
    00:00 +14°C° 0,4 mm 2 m/s 729 mmHg 90%
    01:00 +14°C° 0,4 mm 2 m/s 729 mmHg 93%
    02:00 +14°C° 0,1 mm 2 m/s 729 mmHg 94%
    03:00 +14°C° 0,1 mm 2 m/s 729 mmHg 94%
    04:00 +12°C° 0,1 mm 3 m/s 729 mmHg 95%
    05:00 +13°C° 0 mm 3 m/s 730 mmHg 93%
    06:00 +13°C° 0 mm 3 m/s 730 mmHg 92%
    07:00 +14°C° 0 mm 3 m/s 731 mmHg 90%
    08:00 +14°C° 0,1 mm 3 m/s 731 mmHg 83%
    09:00 +16°C° 0,1 mm 3 m/s 731 mmHg 77%
    10:00 +17°C° 0,1 mm 4 m/s 731 mmHg 70%
    11:00 +18°C° 0 mm 4 m/s 731 mmHg 64%
    12:00 +19°C° 0 mm 4 m/s 731 mmHg 59%
    13:00 +20°C° 0 mm 4 m/s 731 mmHg 53%
    14:00 +20°C° 0 mm 4 m/s 731 mmHg 52%
    15:00 +20°C° 0 mm 4 m/s 731 mmHg 51%
    16:00 +20°C° 0 mm 3 m/s 730 mmHg 51%
    17:00 +18°C° 0 mm 2 m/s 730 mmHg 56%
    18:00 +16°C° 0 mm 1 m/s 730 mmHg 62%
    19:00 +13°C° 0 mm 0 m/s 730 mmHg 68%
    20:00 +14°C° 0 mm 1 m/s 730 mmHg 69%
    21:00 +14°C° 0 mm 1 m/s 730 mmHg 70%
    22:00 +14°C° 0 mm 2 m/s 730 mmHg 72%
    23:00 +13°C° 0 mm 2 m/s 730 mmHg 74%

    Depois de amanhã, 25 Abril, Quarta-feira

    Tempo Temperatura Precipitação Vento Pressão Humidade
    00:00 +13°C° 0 mm 2 m/s 730 mmHg 76%
    01:00 +12°C° 0 mm 3 m/s 730 mmHg 78%
    02:00 +12°C° 0 mm 2 m/s 730 mmHg 81%
    03:00 +12°C° 0 mm 2 m/s 730 mmHg 85%
    04:00 +10°C° 0 mm 2 m/s 730 mmHg 88%
    05:00 +12°C° 0 mm 2 m/s 730 mmHg 83%
    06:00 +14°C° 0 mm 2 m/s 731 mmHg 78%
    07:00 +15°C° 0 mm 1 m/s 731 mmHg 73%
    08:00 +17°C° 0 mm 2 m/s 731 mmHg 67%
    09:00 +19°C° 0 mm 3 m/s 731 mmHg 61%
    10:00 +20°C° 0 mm 3 m/s 731 mmHg 55%
    11:00 +21°C° 0 mm 4 m/s 730 mmHg 52%
    12:00 +22°C° 0 mm 4 m/s 730 mmHg 49%
    13:00 +23°C° 0 mm 5 m/s 729 mmHg 47%
    14:00 +23°C° 0 mm 5 m/s 729 mmHg 47%
    15:00 +23°C° 0 mm 4 m/s 728 mmHg 48%
    16:00 +23°C° 0 mm 4 m/s 728 mmHg 48%
    17:00 +21°C° 0 mm 4 m/s 728 mmHg 55%
    18:00 +19°C° 0 mm 3 m/s 727 mmHg 61%
    19:00 +18°C° 0 mm 3 m/s 727 mmHg 67%
    20:00 +17°C° 0,1 mm 3 m/s 727 mmHg 70%
    21:00 +17°C° 0,1 mm 4 m/s 727 mmHg 73%
    22:00 +15°C° 0,1 mm 4 m/s 728 mmHg 76%
    23:00 +15°C° 0 mm 4 m/s 728 mmHg 78%

    26 Abril, Quinta-feira

    Tempo Temperatura Precipitação Vento Pressão Humidade
    00:00 +14°C° 0 mm 4 m/s 728 mmHg 79%
    01:00 +14°C° 0 mm 4 m/s 728 mmHg 81%
    02:00 +13°C° 0 mm 3 m/s 728 mmHg 84%
    03:00 +13°C° 0 mm 3 m/s 728 mmHg 87%
    04:00 +13°C° 0 mm 2 m/s 728 mmHg 90%
    05:00 +13°C° 0 mm 3 m/s 728 mmHg 84%
    06:00 +14°C° 0 mm 4 m/s 729 mmHg 79%
    07:00 +15°C° 0 mm 4 m/s 729 mmHg 73%
    08:00 +16°C° 0 mm 5 m/s 729 mmHg 67%
    09:00 +17°C° 0 mm 5 m/s 730 mmHg 60%
    10:00 +19°C° 0 mm 5 m/s 730 mmHg 54%
    11:00 +19°C° 0 mm 5 m/s 730 mmHg 54%
    12:00 +19°C° 0 mm 4 m/s 730 mmHg 53%
    13:00 +19°C° 0 mm 4 m/s 729 mmHg 53%
    14:00 +18°C° 0,1 mm 4 m/s 729 mmHg 57%
    15:00 +17°C° 0,1 mm 4 m/s 729 mmHg 62%
    16:00 +15°C° 0,1 mm 4 m/s 729 mmHg 66%
    17:00 +15°C° 0,2 mm 4 m/s 729 mmHg 69%
    18:00 +14°C° 0,2 mm 4 m/s 730 mmHg 72%
    19:00 +13°C° 0,2 mm 3 m/s 730 mmHg 75%
    20:00 +12°C° 0,2 mm 3 m/s 730 mmHg 77%
    21:00 +12°C° 0,2 mm 3 m/s 731 mmHg 78%
    22:00 +11°C° 0,2 mm 3 m/s 731 mmHg 79%
    23:00 +11°C° 0,2 mm 3 m/s 731 mmHg 80%

    27 Abril, Sexta-feira

    Tempo Temperatura Precipitação Vento Pressão Humidade
    00:00 +10°C° 0,2 mm 2 m/s 731 mmHg 81%
    01:00 +10°C° 0,2 mm 2 m/s 732 mmHg 83%
    02:00 +9°C° 0 mm 2 m/s 732 mmHg 82%
    03:00 +9°C° 0 mm 2 m/s 732 mmHg 82%
    04:00 +9°C° 0 mm 2 m/s 732 mmHg 82%
    05:00 +9°C° 0 mm 2 m/s 733 mmHg 78%
    06:00 +9°C° 0 mm 2 m/s 733 mmHg 74%
    07:00 +10°C° 0 mm 3 m/s 733 mmHg 70%
    08:00 +11°C° 0 mm 3 m/s 733 mmHg 62%
    09:00 +12°C° 0 mm 3 m/s 734 mmHg 55%
    10:00 +13°C° 0 mm 3 m/s 734 mmHg 47%
    11:00 +15°C° 0 mm 2 m/s 734 mmHg 44%
    12:00 +16°C° 0 mm 2 m/s 734 mmHg 41%
    13:00 +17°C° 0 mm 2 m/s 733 mmHg 39%
    14:00 +17°C° 0 mm 2 m/s 733 mmHg 39%
    15:00 +16°C° 0 mm 2 m/s 733 mmHg 40%
    16:00 +16°C° 0 mm 1 m/s 733 mmHg 40%
    17:00 +15°C° 0 mm 2 m/s 733 mmHg 46%
    18:00 +13°C° 0 mm 2 m/s 733 mmHg 52%
    19:00 +10°C° 0 mm 2 m/s 733 mmHg 57%
    20:00 +10°C° 0 mm 2 m/s 733 mmHg 59%
    21:00 +9°C° 0 mm 2 m/s 733 mmHg 61%
    22:00 +8°C° 0 mm 2 m/s 733 mmHg 64%
    23:00 +8°C° 0 mm 2 m/s 733 mmHg 65%

    28 Abril, Sábado

    Tempo Temperatura Precipitação Vento Pressão Humidade
    00:00 +7°C° 0 mm 2 m/s 733 mmHg 67%
    01:00 +7°C° 0 mm 2 m/s 733 mmHg 69%
    02:00 +7°C° 0 mm 2 m/s 732 mmHg 71%
    03:00 +7°C° 0 mm 2 m/s 732 mmHg 72%
    04:00 +7°C° 0 mm 2 m/s 732 mmHg 74%
    05:00 +8°C° 0 mm 3 m/s 732 mmHg 71%
    06:00 +10°C° 0 mm 3 m/s 732 mmHg 68%
    07:00 +12°C° 0 mm 3 m/s 732 mmHg 65%
    08:00 +14°C° 0 mm 3 m/s 731 mmHg 62%
    09:00 +17°C° 0 mm 3 m/s 731 mmHg 59%
    10:00 +19°C° 0 mm 4 m/s 731 mmHg 56%
    11:00 +21°C° 0 mm 4 m/s 731 mmHg 54%
    12:00 +22°C° 0 mm 4 m/s 731 mmHg 52%
    13:00 +23°C° 0 mm 4 m/s 730 mmHg 50%
    14:00 +25°C° 0 mm 4 m/s 730 mmHg 52%
    15:00 +25°C° 0 mm 3 m/s 730 mmHg 53%
    16:00 +25°C° 0 mm 3 m/s 729 mmHg 55%
    17:00 +22°C° 0,1 mm 3 m/s 729 mmHg 63%
    18:00 +20°C° 0,1 mm 3 m/s 729 mmHg 72%
    19:00 +18°C° 0,1 mm 3 m/s 729 mmHg 81%
    20:00 +17°C° 0 mm 3 m/s 729 mmHg 84%
    21:00 +17°C° 0 mm 3 m/s 729 mmHg 87%
    22:00 +16°C° 0 mm 3 m/s 729 mmHg 90%
    23:00 +16°C° 0 mm 3 m/s 729 mmHg 90%
    Mostrar mais